This is the latest recevied weather packets stored in our database for station/object WB4FAY-4. If no packets are shown the sender has not sent any weather packets the latest 10 day(s).
| Time | Temp. | Humidity | Pressure | Rain* | Wind** | Luminosity | Snow |
|---|---|---|---|---|---|---|---|
| 1777835117 | 20.56° C | 41% | 1021.3 hPa | 0 mm | - | - | - |
| 1777834818 | 20.56° C | 41% | 1021.5 hPa | 0 mm | - | - | - |
| 1777834517 | 20.56° C | 40% | 1021.5 hPa | 0 mm | - | - | - |
| 1777834217 | 20.56° C | 39% | 1021.8 hPa | 0 mm | - | - | - |
| 1777833917 | 20° C | 39% | 1021.8 hPa | 0 mm | - | - | - |
| 1777833617 | 20° C | 38% | 1021.9 hPa | 0 mm | - | - | - |
| 1777833318 | 20° C | 38% | 1021.9 hPa | 0 mm | - | - | - |
| 1777833017 | 20° C | 39% | 1022 hPa | 0 mm | - | - | - |
| 1777832717 | 20° C | 38% | 1022.1 hPa | 0 mm | - | - | - |
| 1777832418 | 20° C | 40% | 1022.2 hPa | 0 mm | - | - | - |
| 1777832117 | 20° C | 38% | 1022.1 hPa | 0 mm | - | - | - |
| 1777831818 | 20° C | 40% | 1022.2 hPa | 0 mm | - | - | - |
| 1777831517 | 20° C | 41% | 1022.3 hPa | 0 mm | - | - | - |
| 1777831217 | 19.44° C | 42% | 1022.3 hPa | 0 mm | - | - | - |
| 1777830917 | 19.44° C | 41% | 1022.4 hPa | 0 mm | - | - | - |
| 1777830617 | 20° C | 40% | 1022.4 hPa | 0 mm | - | - | - |
| 1777830318 | 19.44° C | 39% | 1022.5 hPa | 0 mm | - | - | - |
| 1777830017 | 20° C | 41% | 1022.5 hPa | 0 mm | - | - | - |
| 1777829718 | 19.44° C | 41% | 1022.5 hPa | 0 mm | - | - | - |
| 1777829417 | 19.44° C | 40% | 1022.5 hPa | 0 mm | - | - | - |
| 1777829117 | 19.44° C | 42% | 1022.6 hPa | 0 mm | - | - | - |
| 1777828817 | 18.89° C | 41% | 1022.6 hPa | 0 mm | - | - | - |
| 1777828517 | 18.89° C | 42% | 1022.7 hPa | 0 mm | - | - | - |
| 1777828217 | 18.89° C | 43% | 1022.8 hPa | 0 mm | - | - | - |
| 1777827918 | 18.89° C | 40% | 1022.9 hPa | 0 mm | - | - | - |
* Rain latest 24 hours (hover to see other rain measurements)
** Current wind speed in m/s (hover to see current wind gust speed)